Weather Roundup
Issued by NWS

Home | Current Version | Previous Version | Graphics & Text | Print | Product List | Glossary Off
Versions: 1 2 3 4 5 6 7 8 9 10 11 12 13 14 15 16 17 18 19 20 21 22 23 24 25 26 27 28 29 30 31 32 33 34 35 36 37 38 39 40 41 42 43 44 45 46 47 48 49 50

000
NZUS93 KARX 240759
HRRWXR

CURRENT HOURLY OBSERVATIONS ACROSS
MUCH OF THE UPPER MISSISSIPPI VALLEY
NATIONAL WEATHER SERVICE LA CROSSE WI
300 AM CDT THU APR 24 2014


...SOUTHEAST MINNESOTA...


CITY           SKY/WX    TMP DP  RH WIND       PRES   REMARKS
ROCHESTER      LGT RAIN  41  37  86 SE21      29.85F FOG
ROCHESTER/MAYO CLOUDY    41  38  91 E15G23    29.87F
WINONA         DRIZZLE   41  36  81 SE15      29.94F
AUSTIN         CLOUDY    43  39  87 SE18G25   29.82F
ALBERT LEA     DRIZZLE   43  43 100 SE16G29   29.79F
DODGE CENTER   LGT RAIN  45  41  87 SE22      29.84F
PRESTON        CLOUDY    41  37  87 SE13G22   29.89F
OWATONNA       RAIN      43  39  87 SE21G31   29.82F
FARIBAULT      CLOUDY    46  37  71 MISG      29.84F
$$

...ELSEWHERE IN MINNESOTA...


CITY           SKY/WX    TMP DP  RH WIND       PRES   REMARKS
MINNEAPOLIS    CLOUDY    43  38  82 SE16      29.86F
INTNL FALLS    LGT RAIN  37  34  89 SE8       29.97F WCI  31
DULUTH         DRIZZLE   36  34  92 E10       29.98F FOG     WCI  28
RED WING       RAIN      45  39  81 SE21G28   29.88F
REDWOOD FALLS  CLOUDY    44  38  79 SE15      29.77F
MANKATO        CLOUDY    43  39  87 SE21      29.79F
WORTHINGTON    CLOUDY    43  37  81 SE14      29.71F
FAIRMONT       CLOUDY    43  37  81 SE15      29.77R
$$

...SOUTHWEST WISCONSIN...


CITY           SKY/WX    TMP DP  RH WIND       PRES   REMARKS
LA CROSSE      LGT RAIN  42  36  79 SE9       29.96F
PRAIRIE DU CHI LGT RAIN  41  36  81 E12G18    29.95F
BOSCOBEL       LGT RAIN  41  34  76 E6        29.98F
LONE ROCK      NOT AVBL
PLATTEVILLE    CLOUDY    40  34  78 E16       29.98F WCI  32
FORT MC COY    DRIZZLE   38  37  93 E8        30.02F WCI  32
VIROQUA        NOT AVBL
WIS DELLS      LGT RAIN  36  32  86 E14       30.02F WCI  27
$$

...ELSEWHERE IN WISCONSIN...


CITY           SKY/WX    TMP DP  RH WIND       PRES   REMARKS
MILWAUKEE      LGT RAIN  39  27  62 NW6       30.11R WCI  35
MADISON        CLOUDY    36  29  75 MISG      30.06F
GREEN BAY      CLOUDY    41  21  44 E3        30.10S
EAU CLAIRE     NOT AVBL
BLACK RVR FLS  LGT RAIN  38  38  98 E7        30.01F WCI  33
MEDFORD        CLOUDY    37  30  78 E8        30.03F WCI  30
WAUSAU         CLOUDY    39  20  46 SE9       30.05F WCI  33
WIS RAPIDS     LGT RAIN  34  29  82 E6        30.07F WCI  29
MARSHFIELD     LGT RAIN  36  29  75 SE13      30.03F WCI  27
RICE LAKE      DRIZZLE   39  37  93 E13       29.98F WCI  32
$$

...NORTHEAST IOWA...


CITY           SKY/WX    TMP DP  RH WIND       PRES   REMARKS
WATERLOO       LGT RAIN  44  39  82 SE21      29.83F
DUBUQUE        CLOUDY    43  31  62 E17       29.94F
DECORAH        LGT RAIN  41  37  87 E17G25    29.89F
MASON CITY     LGT RAIN  43  41  93 SE23G31   29.78F FOG
CHARLES CITY   CLOUDY    45  39  81 SE23      29.85F
OELWEIN        CLOUDY   N/A N/A N/A E24G31    29.88F
$$

...ELSEWHERE IN IOWA...


CITY           SKY/WX    TMP DP  RH WIND       PRES   REMARKS
DES MOINES     LGT RAIN  53  38  56 SE12      29.73S
IOWA CITY      CLOUDY    48  39  71 E8G18     29.87F
FORT DODGE     CLOUDY    45  39  81 NW13G24   29.76R
MARSHALLTOWN   LGT RAIN  45  41  86 E16       29.79F
CEDAR RAPIDS   CLOUDY    46  39  76 E18G24    29.84F
$$

...NORTHERN ILLINOIS...


CITY           SKY/WX    TMP DP  RH WIND       PRES   REMARKS
CHICAGO-OHARE  CLOUDY    40  30  67 N7        30.08R
DUPAGE         LGT RAIN  39  33  79 NE8       30.06S WCI  33
CHICAGO-MIDWAY CLOUDY    42  35  76 N6        30.07S
MOLINE         CLOUDY    45  37  73 E16       29.94F
ROCKFORD       CLOUDY    40  29  64 E13       30.05F WCI  32
STERLING       CLOUDY    41  34  75 E17G23    29.99F
PEORIA         CLOUDY    51  38  60 E8        29.95F
$$

NOTE: "FAIR" INDICATES FEW OR NO CLOUDS BELOW 12,000 FEET WITH NO
SIGNIFICANT WEATHER AND/OR OBSTRUCTIONS TO VISIBILITY. WIND
SPEEDS ARE IN MILES-PER-HOUR.



USA.gov is the U.S. government's official web portal to all federal, state and local government web resources and services.